Home > Weather > Fargo > Past weeks

Flag for U.S.A. Weather for the Past 2 Weeks in Fargo, North Dakota, U.S.A.

Now
2 °F

Clear.


Feels Like: -20 °F
Forecast: -8 / 8 °F
Wind: 21 mph from North

Location: Hector International Airport

Current Time: Feb 12, 2016 at 6:38:19 AM

Latest Report: Feb 12, 2016 at 5:53 AM


Visibility: 10 mi

Pressure: 30.54 "Hg

Humidity: 65%

Dew point: -7 °F

Location of FargoLocation

Historic Weather in Fargo — Graph

°F

Fargo Temperature Yesterday

Maximum temperature yesterday: 15 °F (at 2:04 PM)
Minimum temperature yesterday: 1 °F (at 1:53 AM)
Average temperature yesterday: 10 °F

High & Low Weather Summary for the Past Weeks

 TemperatureHumidityPressure
High39 °F (Jan 29, 3:53 PM)92% (Jan 31, 3:53 AM)30.50 "Hg (Jan 31, 3:53 AM)
Low1 °F (Feb 11, 1:53 AM)46% (Feb 11, 2:04 PM)29.44 "Hg (Jan 29, 2:53 PM)
Average22 °F77%30.00 "Hg
* Reported Jan 28 4:53 AM — Feb 12 4:53 AM, Fargo, Weather by CustomWeather, © 2016

Note: Actual official high and low records may vary slightly from our data, if they occured in-between our weather recording intervals... More about our weather records

Advertising

Fargo Weather History for the Previous 24 Hours

 ConditionsComfort  
Time TempWeatherWind HumidityBarometerVisibility
4:53 AM
Fri, Feb 12
4 °FClear.15 mph66%30.50 "Hg10 mi
3:53 AM5 °FClear.17 mph66%30.47 "Hg10 mi
2:53 AM6 °FClear.14 mph69%30.43 "Hg10 mi
1:53 AM8 °FClear.13 mph72%30.40 "Hg10 mi
12:53 AM11 °FOvercast.8 mph73%30.38 "Hg10 mi
11:53 PM
Thu, Feb 11
13 °FOvercast.13 mph74%30.36 "Hg10 mi
10:53 PM13 °FOvercast.10 mph77%30.36 "Hg10 mi
9:53 PM12 °FOvercast.8 mph77%30.35 "Hg10 mi
8:53 PM13 °FPassing clouds.7 mph77%30.34 "Hg10 mi
7:53 PM14 °FOvercast.7 mph71%30.34 "Hg10 mi
6:53 PM13 °FOvercast.7 mph70%30.33 "Hg10 mi
5:53 PM14 °FMostly cloudy.6 mph61%30.32 "Hg10 mi
4:53 PM14 °FOvercast.6 mph58%30.31 "Hg10 mi
3:53 PM15 °FMostly cloudy.5 mph56%30.29 "Hg10 mi
2:53 PM15 °FOvercast.3 mph53%30.28 "Hg10 mi
2:04 PM15 °FMostly cloudy.3 mph46%30.21 "Hg10 mi
1:53 PM14 °FMore clouds than sun.3 mph49%30.29 "Hg10 mi
12:53 PM14 °FOvercast.6 mph49%30.29 "Hg10 mi
11:53 AM14 °FOvercast.No wind51%30.30 "Hg10 mi
10:53 AM11 °FOvercast.No wind64%30.32 "Hg10 mi
9:53 AM9 °FOvercast.No wind64%30.32 "Hg10 mi
8:53 AM8 °FOvercast.3 mph66%30.33 "Hg10 mi
7:53 AM7 °FOvercast.No wind70%30.34 "Hg10 mi
6:53 AM7 °FOvercast.3 mph70%30.34 "Hg10 mi
Weather by CustomWeather, © 2016

See weather overviewHow to use our weather pages